Previsão horária em Abdaevo

Hoje, 17 Abril, Sábado

Tempo Temperatura Precipitação Vento Pressão Humidade
00:00 +3°C° 0 mm 3 m/s 753 mmHg 74%
01:00 +3°C° 0 mm 3 m/s 753 mmHg 74%
02:00 +2°C° 0 mm 3 m/s 753 mmHg 75%
03:00 +1°C° 0 mm 3 m/s 754 mmHg 75%
04:00 +1°C° 0 mm 3 m/s 754 mmHg 74%
05:00 +1°C° 0 mm 3 m/s 754 mmHg 72%
06:00 +1°C° 0 mm 3 m/s 754 mmHg 71%
07:00 +3°C° 0 mm 4 m/s 754 mmHg 63%
08:00 +5°C° 0 mm 4 m/s 754 mmHg 56%
09:00 +6°C° 0 mm 4 m/s 754 mmHg 48%
10:00 +8°C° 0 mm 4 m/s 754 mmHg 44%
11:00 +10°C° 0 mm 4 m/s 754 mmHg 40%
12:00 +11°C° 0 mm 4 m/s 754 mmHg 37%
13:00 +11°C° 0 mm 4 m/s 754 mmHg 37%
14:00 +11°C° 0 mm 4 m/s 753 mmHg 37%
15:00 +12°C° 0 mm 4 m/s 753 mmHg 37%
16:00 +11°C° 0 mm 3 m/s 753 mmHg 43%
17:00 +10°C° 0 mm 3 m/s 753 mmHg 49%
18:00 +9°C° 0 mm 2 m/s 753 mmHg 54%
19:00 +7°C° 0 mm 2 m/s 753 mmHg 60%
20:00 +6°C° 0 mm 2 m/s 753 mmHg 65%
21:00 +5°C° 0 mm 2 m/s 753 mmHg 70%
22:00 +4°C° 0 mm 2 m/s 752 mmHg 72%
23:00 +3°C° 0 mm 2 m/s 752 mmHg 74%

Amanhã, 18 Abril, Domingo

Tempo Temperatura Precipitação Vento Pressão Humidade
00:00 +3°C° 0 mm 2 m/s 752 mmHg 76%
01:00 +3°C° 0 mm 2 m/s 752 mmHg 78%
02:00 +2°C° 0 mm 2 m/s 752 mmHg 80%
03:00 +2°C° 0 mm 2 m/s 752 mmHg 82%
04:00 +2°C° 0 mm 2 m/s 752 mmHg 81%
05:00 +2°C° 0 mm 2 m/s 752 mmHg 81%
06:00 +3°C° 0 mm 2 m/s 752 mmHg 80%
07:00 +5°C° 0 mm 2 m/s 752 mmHg 71%
08:00 +7°C° 0 mm 3 m/s 752 mmHg 63%
09:00 +9°C° 0 mm 3 m/s 752 mmHg 55%
10:00 +10°C° 0 mm 4 m/s 752 mmHg 51%
11:00 +10°C° 0 mm 4 m/s 752 mmHg 47%
12:00 +10°C° 0 mm 5 m/s 752 mmHg 44%
13:00 +10°C° 0 mm 5 m/s 752 mmHg 45%
14:00 +10°C° 0 mm 5 m/s 752 mmHg 47%
15:00 +10°C° 0 mm 5 m/s 752 mmHg 48%
16:00 +9°C° 0 mm 5 m/s 752 mmHg 54%
17:00 +7°C° 0 mm 6 m/s 753 mmHg 60%
18:00 +4°C° 0 mm 6 m/s 753 mmHg 66%
19:00 +5°C° 0 mm 5 m/s 753 mmHg 65%
20:00 +3°C° 0 mm 5 m/s 754 mmHg 65%
21:00 +3°C° 0 mm 4 m/s 754 mmHg 65%
22:00 +3°C° 0 mm 4 m/s 754 mmHg 61%
23:00 +1°C° 0 mm 4 m/s 754 mmHg 57%

Depois de amanhã, 19 Abril, Segunda-feira

Tempo Temperatura Precipitação Vento Pressão Humidade
00:00 +1°C° 0 mm 4 m/s 754 mmHg 54%
01:00 0°C° 0 mm 4 m/s 755 mmHg 57%
02:00 0°C° 0 mm 4 m/s 755 mmHg 60%
03:00 -1°C° 0 mm 4 m/s 755 mmHg 63%
04:00 -1°C° 0 mm 5 m/s 755 mmHg 61%
05:00 -1°C° 0 mm 5 m/s 756 mmHg 60%
06:00 -1°C° 0 mm 5 m/s 756 mmHg 58%
07:00 0°C° 0 mm 5 m/s 756 mmHg 52%
08:00 +1°C° 0 mm 6 m/s 756 mmHg 46%
09:00 +2°C° 0 mm 6 m/s 757 mmHg 40%
10:00 +3°C° 0 mm 6 m/s 757 mmHg 36%
11:00 +3°C° 0 mm 6 m/s 757 mmHg 33%
12:00 +4°C° 0 mm 6 m/s 756 mmHg 30%
13:00 +5°C° 0 mm 6 m/s 756 mmHg 29%
14:00 +5°C° 0 mm 6 m/s 756 mmHg 28%
15:00 +5°C° 0 mm 6 m/s 756 mmHg 27%
16:00 +5°C° 0 mm 6 m/s 756 mmHg 30%
17:00 +5°C° 0 mm 5 m/s 756 mmHg 33%
18:00 +3°C° 0 mm 5 m/s 756 mmHg 36%
19:00 +3°C° 0 mm 4 m/s 757 mmHg 40%
20:00 +1°C° 0 mm 4 m/s 757 mmHg 44%
21:00 0°C° 0 mm 4 m/s 757 mmHg 47%
22:00 0°C° 0 mm 4 m/s 757 mmHg 48%
23:00 -1°C° 0 mm 4 m/s 757 mmHg 49%

20 Abril, Terça-feira

Tempo Temperatura Precipitação Vento Pressão Humidade
00:00 -1°C° 0 mm 4 m/s 757 mmHg 50%
01:00 -2°C° 0 mm 4 m/s 757 mmHg 52%
02:00 -2°C° 0 mm 4 m/s 757 mmHg 53%
03:00 -3°C° 0 mm 4 m/s 757 mmHg 55%
04:00 -2°C° 0 mm 4 m/s 757 mmHg 55%
05:00 -2°C° 0 mm 4 m/s 757 mmHg 55%
06:00 -2°C° 0 mm 4 m/s 757 mmHg 55%
07:00 0°C° 0 mm 5 m/s 757 mmHg 49%
08:00 +2°C° 0 mm 5 m/s 757 mmHg 43%
09:00 +4°C° 0 mm 6 m/s 757 mmHg 37%
10:00 +5°C° 0 mm 6 m/s 757 mmHg 35%
11:00 +5°C° 0 mm 6 m/s 757 mmHg 32%
12:00 +7°C° 0 mm 6 m/s 757 mmHg 29%
13:00 +8°C° 0 mm 6 m/s 756 mmHg 29%
14:00 +8°C° 0 mm 6 m/s 756 mmHg 29%
15:00 +8°C° 0 mm 6 m/s 756 mmHg 29%
16:00 +7°C° 0 mm 6 m/s 755 mmHg 32%
17:00 +7°C° 0 mm 5 m/s 755 mmHg 34%
18:00 +6°C° 0 mm 5 m/s 755 mmHg 37%
19:00 +5°C° 0 mm 5 m/s 754 mmHg 40%
20:00 +3°C° 0 mm 5 m/s 754 mmHg 43%
21:00 +2°C° 0 mm 5 m/s 754 mmHg 46%
22:00 +2°C° 0 mm 5 m/s 754 mmHg 47%
23:00 +2°C° 0 mm 5 m/s 754 mmHg 48%

21 Abril, Quarta-feira

Tempo Temperatura Precipitação Vento Pressão Humidade
00:00 +1°C° 0 mm 5 m/s 754 mmHg 49%
01:00 +1°C° 0 mm 5 m/s 753 mmHg 50%
02:00 +1°C° 0 mm 5 m/s 753 mmHg 51%
03:00 0°C° 0 mm 5 m/s 753 mmHg 52%
04:00 +1°C° 0 mm 6 m/s 752 mmHg 52%
05:00 +1°C° 0 mm 6 m/s 752 mmHg 52%
06:00 +1°C° 0 mm 6 m/s 752 mmHg 51%
07:00 +2°C° 0 mm 7 m/s 752 mmHg 49%
08:00 +3°C° 0 mm 7 m/s 751 mmHg 47%
09:00 +4°C° 0 mm 7 m/s 751 mmHg 45%
10:00 +4°C° 0.2 mm 7 m/s 751 mmHg 51%
11:00 +3°C° 0.2 mm 7 m/s 751 mmHg 57%
12:00 +3°C° 0.2 mm 7 m/s 752 mmHg 64%
13:00 +2°C° 0.8 mm 7 m/s 752 mmHg 70%
14:00 +2°C° 0.8 mm 6 m/s 752 mmHg 76%
15:00 +2°C° 0.8 mm 6 m/s 752 mmHg 82%
16:00 +2°C° 0.6 mm 6 m/s 751 mmHg 83%
17:00 +2°C° 0.6 mm 6 m/s 751 mmHg 84%
18:00 +2°C° 0.6 mm 6 m/s 751 mmHg 86%
19:00 +2°C° 0.3 mm 6 m/s 751 mmHg 86%
20:00 +2°C° 0.3 mm 6 m/s 751 mmHg 87%
21:00 +2°C° 0.3 mm 6 m/s 751 mmHg 88%
22:00 +2°C° 0 mm 6 m/s 751 mmHg 89%
23:00 +2°C° 0 mm 5 m/s 751 mmHg 90%

22 Abril, Quinta-feira

Tempo Temperatura Precipitação Vento Pressão Humidade
00:00 +3°C° 0 mm 5 m/s 751 mmHg 91%
01:00 +3°C° 0 mm 5 m/s 751 mmHg 92%
02:00 +3°C° 0 mm 5 m/s 751 mmHg 93%
03:00 +4°C° 0 mm 4 m/s 751 mmHg 95%
04:00 +4°C° 0 mm 4 m/s 752 mmHg 95%
05:00 +4°C° 0 mm 4 m/s 752 mmHg 96%
06:00 +4°C° 0 mm 4 m/s 752 mmHg 96%
07:00 +4°C° 0 mm 4 m/s 752 mmHg 95%
08:00 +5°C° 0 mm 4 m/s 752 mmHg 93%
09:00 +5°C° 0 mm 4 m/s 753 mmHg 92%
10:00 +6°C° 0 mm 4 m/s 753 mmHg 90%
11:00 +6°C° 0 mm 4 m/s 753 mmHg 87%
12:00 +7°C° 0 mm 4 m/s 753 mmHg 85%
13:00 +7°C° 0 mm 4 m/s 753 mmHg 85%
14:00 +7°C° 0 mm 4 m/s 753 mmHg 85%
15:00 +7°C° 0 mm 4 m/s 753 mmHg 85%
16:00 +7°C° 0 mm 4 m/s 753 mmHg 87%
17:00 +6°C° 0 mm 4 m/s 753 mmHg 88%
18:00 +6°C° 0 mm 4 m/s 753 mmHg 90%
19:00 +6°C° 0 mm 4 m/s 753 mmHg 91%
20:00 +5°C° 0 mm 4 m/s 754 mmHg 93%
21:00 +5°C° 0 mm 3 m/s 754 mmHg 95%
22:00 +4°C° 0 mm 3 m/s 754 mmHg 95%
23:00 +4°C° 0 mm 3 m/s 754 mmHg 96%
Mostrar mais

Necessitamos do seu Consentimento

A Meteoprog e os seus Fornecedores de Serviços podem armazenar e aceder a dados pessoais como cookies, identificadores do dispositivo ou outras tecnologias semelhantes existentes no seu dispositivo e processar estes dados para personalizar conteúdos e anúncios, assim como funcionalidades nas redes sociais e análise de tráfego.

  • Armazenar e/ou aceder a informações no seu dispositivo

    Os cookies, identificadores do dispositivo ou outras informações podem ser armazenados ou acedidos no seu dispositivo, para os fins acima indicados.

  • Anúncios e conteúdos personalizados, medição de anúncios e conteúdos, dados sobre o público-alvo e desenvolvimento de produtos

    Os anúncios e os conteúdos podem ser personalizados com base num perfil. Podem ser adicionados dados adicionais para uma maior personalização dos anúncios e dos conteúdos. A eficácia dos anúncios e dos conteúdos pode ser medida. Podem ser obtidas informações sobre o público que visualizou os anúncios e os conteúdos. Estes dados podem ser usados para desenvolver ou melhorar sistemas, softwares ou a experiência do utilizador.

Ao clicar em "Eu concordo”, permitirá o uso de cookies, identificadores do dispositivo e web beacons mencionados ou outras tecnologias semelhantes. As configurações do navegador do seu dispositivo podem ser alteradas.

Para certos fins, podem ser invocados interesses legítimos ao invés de consentimento. Pode ler mais informação sobre este assunto na nossa Política de Privacidade e Cookies.